Regional Weather Roundup
Issued by NWS Cleveland, OH

Home | Current Version | Previous Version | Text Only | Print | Product List | Glossary Off
Versions: 1 2 3 4 5 6 7 8 9 10 11 12 13 14 15 16 17 18 19 20 21 22 23 24 25 26 27 28 29 30 31 32 33 34 35 36 37 38 39 40 41 42 43 44 45 46 47 48 49 50

000
ASUS41 KCLE 280502
RWRCLE
OHIO REGIONAL WEATHER ROUNDUP
NATIONAL WEATHER SERVICE CLEVELAND, OH
1200 AM EST SAT FEB 28 2015

NOTE: "FAIR" INDICATES FEW OR NO CLOUDS BELOW 12,000 FEET WITH NO
SIGNIFICANT WEATHER AND/OR OBSTRUCTIONS TO VISIBILITY.

OHZ001>008-015>018-024>027-034-035-043-044-280600-
   NORTHWEST OHIO

CITY           SKY/WX    TMP DP  RH WIND       PRES   REMARKS
DEFIANCE       CLEAR      0  -6  76 CALM      30.68S
FINDLAY        PTCLDY     4  -6  63 S5        30.66S WCI  -5
TOLEDO EXPRESS CLEAR      0  -7  72 CALM      30.67F
TOLEDO EXEC    CLEAR      5  -6  60 SW3       30.69F
LIMA           MOCLDY     6  -5  60 S7        30.65S WCI  -6
$$

OHZ009>014-019>023-028>033-038-089-280600-
   NORTHEAST OHIO

CITY           SKY/WX    TMP DP  RH WIND       PRES   REMARKS
CLE-HOPKINS    PTCLDY     4  -4  69 S5        30.70F WCI  -5
CLE-LAKEFRONT  CLEAR      9  -3  58 S7        30.68F WCI  -2
CUY CO. ARPT   NOT AVBL
LORAIN-ELYRIA  PTCLDY    -4  -9  79 SW3       30.67F
ASHTABULA      PTCLDY    -9 -14  78 CALM      30.66S
AKRON-CANTON   MOCLDY     7  -3  64 CALM      30.64S
WOOSTER        MOCLDY   -10 -13  86 CALM      30.65S
MANSFIELD      MOCLDY     3  -5  69 CALM      30.62S
YOUNGSTOWN     MOCLDY     1  -4  79 CALM      30.63F
$$

OHZ042-051>053-060>062-070>072-077>081-280600-
  SOUTHWEST OHIO

CITY           SKY/WX    TMP DP  RH WIND       PRES   REMARKS
CINC-COVINGTON MOCLDY    13   1  59 E7        30.65R WCI   3
CINC-LUNKEN    PTCLDY    12   4  70 CALM      30.70S
HAMILTON       MOCLDY     6   1  80 CALM      30.69S
DAYTON         CLOUDY    12   0  58 SE3       30.65F
WRIGHT-PAT AFB NOT AVBL
DAYTON GENERAL CLOUDY    12  -1  56 E6        30.64S WCI   3
WILMINGTON     CLOUDY     9  -4  55 E6        30.64S WCI  -1
$$

OHZ036-037-039>041-045>050-054>059-063>069-073>076-082>088-280600-
  CENTRAL AND SOUTHEAST OHIO

CITY           SKY/WX    TMP DP  RH WIND       PRES   REMARKS
COLUMBUS       CLOUDY     8  -2  63 CALM      30.67F
OSU AIRPORT    MOCLDY     7  -1  70 CALM      30.66F
BOLTON FIELD   NOT AVBL
RICKENBACK AFB NOT AVBL
NEWARK         CLOUDY     2  -4  76 CALM      30.66F
MARION         CLOUDY    -2  -8  76 S5        30.66S WCI -12
LANCASTER      CLOUDY     6  -1  73 CALM      30.67F
ZANESVILLE     CLOUDY     8   1  73 CALM      30.66F
NEW PHILLY     CLOUDY     3  -3  76 CALM      30.69R
$$



USA.gov is the U.S. government's official web portal to all federal, state and local government web resources and services.